User: anonymous   Login
Location: Newark
(41.9000°N, 12.4833°E)
Time: 16:44:31
(UTC+00:00)
Language:

EO-88 - Orbit

View from above orbital plane
View from above orbital plane
View from above satellite
View from above satellite

Ground track
Ground track

The orbit data is extracted from the following two-line orbital elements,

1 42017U 17008BX  19138.73651235  .00001522  00000-0  63043-4 0  9994
2 42017  97.4048 206.1472 0004518 280.8693  79.2037 15.25440409125206
Epoch (UTC): 18 May 2019 17:40:34
Eccentricity: 0.0004518
inclination: 97.4048°
perigee height: 486 km
apogee height: 492 km
right ascension of ascending node: 206.1472°
argument of perigee: 280.8693°
revolutions per day: 15.25440409
mean anomaly at epoch: 79.2037°
orbit number at epoch: 12520

The dashed part of the orbit path shows where the satellite is in the earth's shadow,  

DLR